Location: P�rn�nmaa
(61.1833°N, 23.0000°E)
Time: 16:44:48
(UTC+00:00)

NOSS 3-4 (A) - Pass Details

Date: 08 December 2019
Orbit: 904 x 1309 km, 63.4° (Epoch: 19 January)

Event Time Altitude Azimuth Distance (km) Brightness Sun altitude
Rises 17:43:58 0° 254° (WSW) 3,585 7.4 -29.9°
Reaches altitude 10° 17:46:25 10° 255° (WSW) 2,675 6.6 -30.2°
Enters shadow 17:52:35 81° 327° (NNW) 1,023 3.5 -30.9°
